Menu Horizontal
luftaufnahme
Willkommen auf der Webseite der privaten Wetterstation -- Taufkirchen an der Pram -- 48°24'29,52" Nord  <>  13°32'13,20" Ost

Wetterdaten - Samstag, 28.11.2020 - Taufkirchen an der Pram     336 m über NN
Wetterdaten: aktuell Samstag, 28.11.2020 06:10
Datum Zeit Temp. A. Feuchte A. Luftdruck Regen Wind Sonnenschein UV Solar Windchill Empfang
28.11.2020 06:10 -1,5 °C 97 % 1023,0 hPa 0,0 l/m² 1,0 km/h 0 min 0,0 UV-I 0 W/m² -1,5 °C 100 %
28.11.2020 06:00 -1,5 °C 97 % 1022,9 hPa 0,0 l/m² 1,5 km/h 0 min 0,0 UV-I 0 W/m² -1,5 °C 100 %
28.11.2020 05:50 -1,4 °C 96 % 1022,9 hPa 0,0 l/m² 1,1 km/h 0 min 0,0 UV-I 0 W/m² -1,4 °C 100 %
28.11.2020 05:40 -1,5 °C 96 % 1022,9 hPa 0,0 l/m² 2,1 km/h 0 min 0,0 UV-I 0 W/m² -1,5 °C 100 %
28.11.2020 05:30 -1,4 °C 96 % 1023,0 hPa 0,0 l/m² 0,9 km/h 0 min 0,0 UV-I 0 W/m² -1,4 °C 100 %
28.11.2020 05:20 -1,5 °C 97 % 1023,0 hPa 0,0 l/m² 1,3 km/h 0 min 0,0 UV-I 0 W/m² -1,5 °C 100 %
28.11.2020 05:10 -1,5 °C 97 % 1023,0 hPa 0,0 l/m² 1,5 km/h 0 min 0,0 UV-I 0 W/m² -1,5 °C 91 %
28.11.2020 05:00 -1,5 °C 96 % 1023,0 hPa 0,0 l/m² 2,7 km/h 0 min 0,0 UV-I 0 W/m² -1,5 °C 100 %
28.11.2020 04:50 -1,4 °C 96 % 1023,1 hPa 0,0 l/m² 0,6 km/h 0 min 0,0 UV-I 0 W/m² -1,4 °C 100 %
28.11.2020 04:40 -1,4 °C 96 % 1023,1 hPa 0,0 l/m² 1,2 km/h 0 min 0,0 UV-I 0 W/m² -1,4 °C 99 %
28.11.2020 04:30 -1,3 °C 97 % 1023,1 hPa 0,0 l/m² 0,5 km/h 0 min 0,0 UV-I 0 W/m² -1,3 °C 100 %
28.11.2020 04:20 -1,3 °C 97 % 1023,1 hPa 0,0 l/m² 1,1 km/h 0 min 0,0 UV-I 0 W/m² -1,3 °C 100 %
28.11.2020 04:10 -1,3 °C 97 % 1023,2 hPa 0,0 l/m² 2,2 km/h 0 min 0,0 UV-I 0 W/m² -1,3 °C 100 %
28.11.2020 04:00 -1,3 °C 97 % 1023,1 hPa 0,0 l/m² 0,6 km/h 0 min 0,0 UV-I 0 W/m² -1,3 °C 99 %
28.11.2020 03:50 -1,3 °C 96 % 1023,2 hPa 0,0 l/m² 1,0 km/h 0 min 0,0 UV-I 0 W/m² -1,3 °C 99 %
28.11.2020 03:40 -1,3 °C 96 % 1023,4 hPa 0,0 l/m² 1,7 km/h 0 min 0,0 UV-I 0 W/m² -1,3 °C 100 %
28.11.2020 03:30 -1,3 °C 96 % 1023,4 hPa 0,0 l/m² 4,2 km/h 0 min 0,0 UV-I 0 W/m² -1,3 °C 99 %
28.11.2020 03:20 -1,3 °C 96 % 1023,5 hPa 0,0 l/m² 3,6 km/h 0 min 0,0 UV-I 0 W/m² -1,3 °C 100 %
28.11.2020 03:10 -1,2 °C 96 % 1023,4 hPa 0,0 l/m² 2,3 km/h 0 min 0,0 UV-I 0 W/m² -1,2 °C 100 %
28.11.2020 03:00 -1,1 °C 96 % 1023,4 hPa 0,0 l/m² 0,4 km/h 0 min 0,0 UV-I 0 W/m² -1,1 °C 100 %
28.11.2020 02:50 -1,1 °C 96 % 1023,3 hPa 0,0 l/m² 0,7 km/h 0 min 0,0 UV-I 0 W/m² -1,1 °C 99 %
28.11.2020 02:40 -1,1 °C 96 % 1023,4 hPa 0,0 l/m² 1,4 km/h 0 min 0,0 UV-I 0 W/m² -1,1 °C 100 %
28.11.2020 02:30 -1,1 °C 96 % 1023,5 hPa 0,0 l/m² 1,5 km/h 0 min 0,0 UV-I 0 W/m² -1,1 °C 100 %
28.11.2020 02:20 -1,0 °C 96 % 1023,6 hPa 0,0 l/m² 0,2 km/h 0 min 0,0 UV-I 0 W/m² -1,0 °C 100 %
28.11.2020 02:10 -1,1 °C 96 % 1023,5 hPa 0,0 l/m² 1,9 km/h 0 min 0,0 UV-I 0 W/m² -1,1 °C 100 %
28.11.2020 02:00 -1,1 °C 96 % 1023,4 hPa 0,0 l/m² 1,0 km/h 0 min 0,0 UV-I 0 W/m² -1,1 °C 91 %
28.11.2020 01:50 -1,1 °C 96 % 1023,4 hPa 0,0 l/m² 0,5 km/h 0 min 0,0 UV-I 0 W/m² -1,1 °C 100 %
28.11.2020 01:40 -1,1 °C 96 % 1023,3 hPa 0,0 l/m² 0,8 km/h 0 min 0,0 UV-I 0 W/m² -1,1 °C 100 %
28.11.2020 01:30 -1,1 °C 96 % 1023,4 hPa 0,0 l/m² 1,7 km/h 0 min 0,0 UV-I 0 W/m² -1,1 °C 100 %
28.11.2020 01:20 -1,1 °C 96 % 1023,4 hPa 0,0 l/m² 3,2 km/h 0 min 0,0 UV-I 0 W/m² -1,1 °C 99 %
28.11.2020 01:10 -1,1 °C 96 % 1023,5 hPa 0,0 l/m² 5,0 km/h 0 min 0,0 UV-I 0 W/m² -1,1 °C 100 %
28.11.2020 01:00 -1,2 °C 96 % 1023,6 hPa 0,0 l/m² 4,0 km/h 0 min 0,0 UV-I 0 W/m² -1,2 °C 100 %
28.11.2020 00:50 -1,2 °C 96 % 1023,6 hPa 0,0 l/m² 3,4 km/h 0 min 0,0 UV-I 0 W/m² -1,2 °C 99 %
28.11.2020 00:40 -1,1 °C 96 % 1023,6 hPa 0,0 l/m² 3,8 km/h 0 min 0,0 UV-I 0 W/m² -1,1 °C 91 %
28.11.2020 00:30 -1,1 °C 96 % 1023,7 hPa 0,0 l/m² 2,8 km/h 0 min 0,0 UV-I 0 W/m² -1,1 °C 100 %
28.11.2020 00:20 -1,1 °C 96 % 1023,7 hPa 0,0 l/m² 1,7 km/h 0 min 0,0 UV-I 0 W/m² -1,1 °C 100 %
28.11.2020 00:10 -1,2 °C 96 % 1023,8 hPa 0,0 l/m² 5,4 km/h 0 min 0,0 UV-I 0 W/m² -1,2 °C 100 %
28.11.2020 00:00 -1,2 °C 96 % 1023,8 hPa 0,0 l/m² 4,0 km/h 0 min 0,0 UV-I 0 W/m² -1,2 °C 100 %
27.11.2020 23:50 -1,1 °C 96 % 1023,8 hPa 0,0 l/m² 2,2 km/h 0 min 0,0 UV-I 0 W/m² -1,1 °C 100 %
27.11.2020 23:40 -1,1 °C 96 % 1023,8 hPa 0,0 l/m² 2,8 km/h 0 min 0,0 UV-I 0 W/m² -1,1 °C 100 %
27.11.2020 23:30 -1,1 °C 96 % 1024,0 hPa 0,0 l/m² 2,0 km/h 0 min 0,0 UV-I 0 W/m² -1,1 °C 99 %
27.11.2020 23:20 -1,2 °C 96 % 1024,0 hPa 0,0 l/m² 4,2 km/h 0 min 0,0 UV-I 0 W/m² -1,2 °C 99 %
27.11.2020 23:10 -1,2 °C 96 % 1024,0 hPa 0,0 l/m² 4,4 km/h 0 min 0,0 UV-I 0 W/m² -1,2 °C 99 %
27.11.2020 23:00 -1,2 °C 96 % 1024,1 hPa 0,0 l/m² 1,0 km/h 0 min 0,0 UV-I 0 W/m² -1,2 °C 99 %
27.11.2020 22:50 -1,2 °C 96 % 1024,0 hPa 0,0 l/m² 3,4 km/h 0 min 0,0 UV-I 0 W/m² -1,2 °C 100 %
27.11.2020 22:40 -1,2 °C 96 % 1024,1 hPa 0,0 l/m² 3,1 km/h 0 min 0,0 UV-I 0 W/m² -1,2 °C 97 %
27.11.2020 22:30 -1,2 °C 96 % 1024,2 hPa 0,0 l/m² 2,4 km/h 0 min 0,0 UV-I 0 W/m² -1,2 °C 100 %
27.11.2020 22:20 -1,2 °C 96 % 1024,2 hPa 0,0 l/m² 1,5 km/h 0 min 0,0 UV-I 0 W/m² -1,2 °C 100 %
27.11.2020 22:10 -1,2 °C 96 % 1024,3 hPa 0,0 l/m² 2,4 km/h 0 min 0,0 UV-I 0 W/m² -1,2 °C 99 %
27.11.2020 22:00 -1,2 °C 96 % 1024,4 hPa 0,0 l/m² 4,3 km/h 0 min 0,0 UV-I 0 W/m² -1,2 °C 100 %
27.11.2020 21:50 -1,2 °C 96 % 1024,6 hPa 0,0 l/m² 4,2 km/h 0 min 0,0 UV-I 0 W/m² -1,2 °C 100 %
27.11.2020 21:40 -1,2 °C 96 % 1024,6 hPa 0,0 l/m² 2,0 km/h 0 min 0,0 UV-I 0 W/m² -1,2 °C 100 %
27.11.2020 21:30 -1,3 °C 96 % 1024,6 hPa 0,0 l/m² 1,5 km/h 0 min 0,0 UV-I 0 W/m² -1,3 °C 100 %
27.11.2020 21:20 -1,3 °C 96 % 1024,5 hPa 0,0 l/m² 3,1 km/h 0 min 0,0 UV-I 0 W/m² -1,3 °C 100 %
27.11.2020 21:10 -1,3 °C 96 % 1024,4 hPa 0,0 l/m² 2,9 km/h 0 min 0,0 UV-I 0 W/m² -1,3 °C 100 %
27.11.2020 21:00 -1,3 °C 96 % 1024,4 hPa 0,0 l/m² 1,4 km/h 0 min 0,0 UV-I 0 W/m² -1,3 °C 99 %
27.11.2020 20:50 -1,3 °C 96 % 1024,4 hPa 0,0 l/m² 1,7 km/h 0 min 0,0 UV-I 0 W/m² -1,3 °C 100 %
27.11.2020 20:40 -1,3 °C 96 % 1024,4 hPa 0,0 l/m² 4,1 km/h 0 min 0,0 UV-I 0 W/m² -1,3 °C 99 %
27.11.2020 20:30 -1,2 °C 96 % 1024,3 hPa 0,0 l/m² 3,5 km/h 0 min 0,0 UV-I 0 W/m² -1,2 °C 99 %
27.11.2020 20:20 -1,2 °C 96 % 1024,2 hPa 0,0 l/m² 1,5 km/h 0 min 0,0 UV-I 0 W/m² -1,2 °C 100 %
27.11.2020 20:10 -1,2 °C 96 % 1024,2 hPa 0,0 l/m² 3,4 km/h 0 min 0,0 UV-I 0 W/m² -1,2 °C 100 %
27.11.2020 20:00 -1,2 °C 96 % 1024,0 hPa 0,0 l/m² 2,9 km/h 0 min 0,0 UV-I 0 W/m² -1,2 °C 100 %
27.11.2020 19:50 -1,2 °C 96 % 1024,0 hPa 0,0 l/m² 2,0 km/h 0 min 0,0 UV-I 0 W/m² -1,2 °C 99 %
27.11.2020 19:40 -1,1 °C 95 % 1024,1 hPa 0,0 l/m² 2,5 km/h 0 min 0,0 UV-I 0 W/m² -1,1 °C 100 %
27.11.2020 19:30 -1,0 °C 96 % 1024,1 hPa 0,0 l/m² 2,9 km/h 0 min 0,0 UV-I 0 W/m² -1,0 °C 100 %
27.11.2020 19:20 -1,0 °C 95 % 1024,2 hPa 0,0 l/m² 1,4 km/h 0 min 0,0 UV-I 0 W/m² -1,0 °C 100 %
27.11.2020 19:10 -1,0 °C 96 % 1024,1 hPa 0,0 l/m² 1,3 km/h 0 min 0,0 UV-I 0 W/m² -1,0 °C 100 %
27.11.2020 19:00 -0,9 °C 96 % 1024,1 hPa 0,0 l/m² 0,7 km/h 0 min 0,0 UV-I 0 W/m² -0,9 °C 100 %
27.11.2020 18:50 -0,9 °C 95 % 1024,1 hPa 0,0 l/m² 0,4 km/h 0 min 0,0 UV-I 0 W/m² -0,9 °C 100 %
27.11.2020 18:40 -0,9 °C 95 % 1024,0 hPa 0,0 l/m² 1,0 km/h 0 min 0,0 UV-I 0 W/m² -0,9 °C 99 %
27.11.2020 18:30 -0,8 °C 95 % 1024,0 hPa 0,0 l/m² 0,1 km/h 0 min 0,0 UV-I 0 W/m² -0,8 °C 100 %
27.11.2020 18:20 -0,8 °C 95 % 1023,9 hPa 0,0 l/m² 0,7 km/h 0 min 0,0 UV-I 0 W/m² -0,8 °C 100 %
27.11.2020 18:10 -0,8 °C 95 % 1023,8 hPa 0,0 l/m² 0,3 km/h 0 min 0,0 UV-I 0 W/m² -0,8 °C 91 %
27.11.2020 18:00 -0,8 °C 95 % 1023,8 hPa 0,0 l/m² 1,1 km/h 0 min 0,0 UV-I 0 W/m² -0,8 °C 100 %
27.11.2020 17:50 -0,7 °C 95 % 1023,8 hPa 0,0 l/m² 1,2 km/h 0 min 0,0 UV-I 0 W/m² -0,7 °C 100 %
27.11.2020 17:40 -0,7 °C 95 % 1023,8 hPa 0,0 l/m² 1,2 km/h 0 min 0,0 UV-I 0 W/m² -0,7 °C 99 %
27.11.2020 17:30 -0,6 °C 95 % 1023,9 hPa 0,0 l/m² 0,4 km/h 0 min 0,0 UV-I 0 W/m² -0,6 °C 100 %
27.11.2020 17:20 -0,6 °C 95 % 1023,8 hPa 0,0 l/m² 0,1 km/h 0 min 0,0 UV-I 0 W/m² -0,6 °C 99 %
27.11.2020 17:10 -0,6 °C 95 % 1023,8 hPa 0,0 l/m² 0,4 km/h 0 min 0,0 UV-I 0 W/m² -0,6 °C 100 %
27.11.2020 17:00 -0,6 °C 95 % 1023,7 hPa 0,0 l/m² 1,8 km/h 0 min 0,0 UV-I 0 W/m² -0,6 °C 100 %
27.11.2020 16:50 -0,6 °C 95 % 1023,8 hPa 0,0 l/m² 1,3 km/h 0 min 0,0 UV-I 0 W/m² -0,6 °C 91 %
27.11.2020 16:40 -0,4 °C 95 % 1023,8 hPa 0,0 l/m² 0,9 km/h 0 min 0,0 UV-I 0 W/m² -0,4 °C 100 %
27.11.2020 16:30 -0,4 °C 95 % 1023,8 hPa 0,0 l/m² 1,0 km/h 0 min 0,0 UV-I 0 W/m² -0,4 °C 99 %
27.11.2020 16:20 -0,3 °C 95 % 1023,7 hPa 0,0 l/m² 0,6 km/h 0 min 0,0 UV-I 0 W/m² -0,3 °C 100 %
27.11.2020 16:10 -0,3 °C 95 % 1023,8 hPa 0,0 l/m² 0,9 km/h 0 min 0,0 UV-I 0 W/m² -0,3 °C 100 %
27.11.2020 16:00 -0,3 °C 95 % 1023,9 hPa 0,0 l/m² 2,7 km/h 0 min 0,0 UV-I 3 W/m² -0,3 °C 100 %
27.11.2020 15:50 -0,2 °C 95 % 1023,9 hPa 0,0 l/m² 1,8 km/h 0 min 0,0 UV-I 6 W/m² -0,2 °C 99 %
27.11.2020 15:40 -0,1 °C 95 % 1023,8 hPa 0,0 l/m² 0,1 km/h 0 min 0,0 UV-I 8 W/m² -0,1 °C 100 %
27.11.2020 15:30 -0,2 °C 95 % 1023,9 hPa 0,0 l/m² 1,2 km/h 0 min 0,0 UV-I 13 W/m² -0,2 °C 91 %
27.11.2020 15:20 -0,2 °C 95 % 1023,9 hPa 0,0 l/m² 3,7 km/h 0 min 0,0 UV-I 15 W/m² -0,2 °C 99 %
27.11.2020 15:10 -0,1 °C 95 % 1024,0 hPa 0,0 l/m² 1,2 km/h 0 min 0,0 UV-I 17 W/m² -0,1 °C 100 %
27.11.2020 15:00 -0,1 °C 95 % 1023,9 hPa 0,0 l/m² 2,0 km/h 0 min 0,0 UV-I 26 W/m² -0,1 °C 100 %
27.11.2020 14:50 -0,1 °C 95 % 1023,9 hPa 0,0 l/m² 0,3 km/h 0 min 0,0 UV-I 30 W/m² -0,1 °C 100 %
27.11.2020 14:40 -0,2 °C 95 % 1024,1 hPa 0,0 l/m² 1,6 km/h 0 min 0,0 UV-I 39 W/m² -0,2 °C 100 %
27.11.2020 14:30 -0,2 °C 95 % 1024,0 hPa 0,0 l/m² 3,4 km/h 0 min 0,0 UV-I 36 W/m² -0,2 °C 100 %
27.11.2020 14:20 -0,1 °C 95 % 1024,2 hPa 0,0 l/m² 3,6 km/h 0 min 0,0 UV-I 30 W/m² -0,1 °C 100 %
27.11.2020 14:10 0,0 °C 96 % 1024,4 hPa 0,0 l/m² 0,9 km/h 0 min 0,0 UV-I 36 W/m² 0,0 °C 99 %
27.11.2020 14:00 0,0 °C 96 % 1024,4 hPa 0,0 l/m² 1,4 km/h 0 min 0,0 UV-I 43 W/m² 0,0 °C 100 %
27.11.2020 13:50 -0,1 °C 96 % 1024,4 hPa 0,0 l/m² 1,5 km/h 0 min 0,0 UV-I 46 W/m² -0,1 °C 100 %
27.11.2020 13:40 -0,1 °C 96 % 1024,5 hPa 0,0 l/m² 1,7 km/h 0 min 0,4 UV-I 59 W/m² -0,1 °C 100 %
27.11.2020 13:30 -0,1 °C 96 % 1024,6 hPa 0,0 l/m² 2,4 km/h 0 min 0,5 UV-I 68 W/m² -0,1 °C 99 %
27.11.2020 13:20 -0,1 °C 96 % 1024,9 hPa 0,0 l/m² 4,2 km/h 0 min 0,5 UV-I 64 W/m² -0,1 °C 100 %
27.11.2020 13:10 -0,1 °C 96 % 1025,0 hPa 0,0 l/m² 2,9 km/h 0 min 0,5 UV-I 65 W/m² -0,1 °C 100 %
27.11.2020 13:00 0,0 °C 96 % 1025,0 hPa 0,0 l/m² 1,4 km/h 0 min 0,6 UV-I 65 W/m² 0,0 °C 98 %
27.11.2020 12:50 -0,1 °C 96 % 1025,0 hPa 0,0 l/m² 4,8 km/h 0 min 0,3 UV-I 57 W/m² -0,1 °C 100 %
27.11.2020 12:40 -0,1 °C 96 % 1025,2 hPa 0,0 l/m² 1,2 km/h 0 min 0,0 UV-I 50 W/m² -0,1 °C 100 %
27.11.2020 12:30 -0,2 °C 96 % 1025,1 hPa 0,0 l/m² 2,0 km/h 0 min 0,4 UV-I 59 W/m² -0,2 °C 100 %
27.11.2020 12:20 -0,1 °C 96 % 1025,2 hPa 0,0 l/m² 3,7 km/h 0 min 0,5 UV-I 60 W/m² -0,1 °C 99 %
27.11.2020 12:10 -0,2 °C 96 % 1025,2 hPa 0,0 l/m² 4,3 km/h 0 min 0,3 UV-I 58 W/m² -0,2 °C 99 %
27.11.2020 12:00 -0,1 °C 96 % 1025,2 hPa 0,0 l/m² 3,7 km/h 0 min 0,3 UV-I 56 W/m² -0,1 °C 100 %
27.11.2020 11:50 -0,1 °C 96 % 1025,3 hPa 0,0 l/m² 2,0 km/h 0 min 0,1 UV-I 52 W/m² -0,1 °C 99 %
27.11.2020 11:40 -0,1 °C 96 % 1025,5 hPa 0,0 l/m² 1,7 km/h 0 min 0,0 UV-I 47 W/m² -0,1 °C 100 %
27.11.2020 11:30 -0,1 °C 96 % 1025,6 hPa 0,0 l/m² 2,5 km/h 0 min 0,0 UV-I 45 W/m² -0,1 °C 100 %
27.11.2020 11:20 -0,2 °C 96 % 1025,6 hPa 0,0 l/m² 1,0 km/h 0 min 0,0 UV-I 47 W/m² -0,2 °C 100 %
27.11.2020 11:10 -0,2 °C 96 % 1025,8 hPa 0,0 l/m² 0,9 km/h 0 min 0,0 UV-I 48 W/m² -0,2 °C 99 %
27.11.2020 11:00 -0,2 °C 96 % 1025,8 hPa 0,0 l/m² 0,0 km/h 0 min 0,0 UV-I 47 W/m² -0,2 °C 100 %
27.11.2020 10:50 -0,3 °C 96 % 1025,8 hPa 0,0 l/m² 0,1 km/h 0 min 0,0 UV-I 47 W/m² -0,3 °C 100 %
27.11.2020 10:40 -0,3 °C 96 % 1025,9 hPa 0,0 l/m² 0,2 km/h 0 min 0,0 UV-I 44 W/m² -0,3 °C 99 %
27.11.2020 10:30 -0,3 °C 96 % 1025,9 hPa 0,0 l/m² 0,1 km/h 0 min 0,0 UV-I 41 W/m² -0,3 °C 100 %
27.11.2020 10:20 -0,3 °C 96 % 1026,0 hPa 0,0 l/m² 0,0 km/h 0 min 0,0 UV-I 39 W/m² -0,3 °C 100 %
27.11.2020 10:10 -0,4 °C 96 % 1026,1 hPa 0,0 l/m² 0,0 km/h 0 min 0,0 UV-I 37 W/m² -0,4 °C 100 %
27.11.2020 10:00 -0,6 °C 96 % 1026,0 hPa 0,0 l/m² 0,0 km/h 0 min 0,0 UV-I 33 W/m² -0,6 °C 99 %
27.11.2020 09:50 -0,6 °C 96 % 1026,1 hPa 0,0 l/m² 0,0 km/h 0 min 0,0 UV-I 29 W/m² -0,6 °C 100 %
27.11.2020 09:40 -0,6 °C 96 % 1026,0 hPa 0,0 l/m² 0,0 km/h 0 min 0,0 UV-I 25 W/m² -0,6 °C 100 %
27.11.2020 09:30 -0,7 °C 96 % 1025,9 hPa 0,0 l/m² 0,0 km/h 0 min 0,0 UV-I 20 W/m² -0,7 °C 99 %
27.11.2020 09:20 -0,7 °C 96 % 1025,8 hPa 0,0 l/m² 0,0 km/h 0 min 0,0 UV-I 18 W/m² -0,7 °C 100 %
27.11.2020 09:10 -0,7 °C 96 % 1025,8 hPa 0,0 l/m² 0,2 km/h 0 min 0,0 UV-I 17 W/m² -0,7 °C 100 %
27.11.2020 09:00 -0,7 °C 96 % 1025,7 hPa 0,0 l/m² 0,0 km/h 0 min 0,0 UV-I 16 W/m² -0,7 °C 91 %
27.11.2020 08:50 -0,7 °C 96 % 1025,8 hPa 0,0 l/m² 0,0 km/h 0 min 0,0 UV-I 16 W/m² -0,7 °C 100 %
27.11.2020 08:40 -0,8 °C 96 % 1025,7 hPa 0,0 l/m² 0,0 km/h 0 min 0,0 UV-I 12 W/m² -0,8 °C 100 %
27.11.2020 08:30 -0,7 °C 96 % 1025,7 hPa 0,0 l/m² 0,0 km/h 0 min 0,0 UV-I 10 W/m² -0,7 °C 100 %
27.11.2020 08:20 -0,7 °C 96 % 1025,7 hPa 0,0 l/m² 0,0 km/h 0 min 0,0 UV-I 7 W/m² -0,7 °C 99 %
27.11.2020 08:10 -0,9 °C 96 % 1025,7 hPa 0,0 l/m² 0,2 km/h 0 min 0,0 UV-I 5 W/m² -0,9 °C 100 %
27.11.2020 08:00 -0,9 °C 96 % 1025,6 hPa 0,0 l/m² 0,0 km/h 0 min 0,0 UV-I 0 W/m² -0,9 °C 100 %
27.11.2020 07:50 -0,9 °C 96 % 1025,6 hPa 0,0 l/m² 0,0 km/h 0 min 0,0 UV-I 0 W/m² -0,9 °C 100 %
27.11.2020 07:40 -0,9 °C 96 % 1025,5 hPa 0,0 l/m² 0,0 km/h 0 min 0,0 UV-I 0 W/m² -0,9 °C 99 %
27.11.2020 07:30 -0,9 °C 96 % 1025,5 hPa 0,0 l/m² 0,0 km/h 0 min 0,0 UV-I 0 W/m² -0,9 °C 99 %
27.11.2020 07:20 -1,0 °C 96 % 1025,3 hPa 0,0 l/m² 0,0 km/h 0 min 0,0 UV-I 0 W/m² -1,0 °C 100 %
27.11.2020 07:10 -0,9 °C 96 % 1025,2 hPa 0,0 l/m² 0,0 km/h 0 min 0,0 UV-I 0 W/m² -0,9 °C 100 %
27.11.2020 07:00 -1,0 °C 96 % 1025,2 hPa 0,0 l/m² 0,0 km/h 0 min 0,0 UV-I 0 W/m² -1,0 °C 100 %
_ Min-Zeit 05:20 19:40 06:00 - 11:00 - - - 06:10 15:30
Minimum _ -1,6 °C 95 % 1022,9 hPa - 0,0 km/h - - - -1,5 °C 91 %
_ Max-Zeit 14:10 06:10 10:10 06:10 00:10 06:10 13:00 13:30 14:10 06:10
Maximum _ 0,0 °C 97 % 1026,1 hPa 0,0 l/m² 5,4 km/h
S-SO
0 min 0,6 UV-I 68 W/m² 0,0 °C 100 %
Durchschnitt _ -0,8 °C 96 % 1024,4 hPa #0,0 l/m² 1,5 km/h #0 min. 0,0 UV-I 0 W/m² -0,8 °C 99 %